,,Stat5,,Stat1,,Stat2,,Stat3,,Stat4,,Wind1,,Wind1,
time,status,PA1M_AVG,status,PR1M_SUM,status,RH1M_AVG,status,SR1M_AVG,status,TA1M_AVG,status,W1dAve1m,status,W1sAve1m,
2001-12-03, 00:00:00,VALID,918.045,VALID,0,VALID,97.602,VALID,-0.118866,VALID,19.6701,VALID,106,VALID,0.158573,
2001-12-03, 00:01:00,VALID,918.064,VALID,0,VALID,97.5015,VALID,-0.0849042,VALID,19.6443,VALID,106,VALID,0.00189394,
2001-12-03, 00:02:00,VALID,918.066,VALID,0,VALID,97.1798,VALID,-0.101885,VALID,19.5568,VALID,106,VALID,0,
2001-12-03, 00:03:00,VALID,918.051,VALID,0,VALID,96.8568,VALID,-0.101885,VALID,19.4564,VALID,106,VALID,0,
2001-12-03, 00:04:00,VALID,918.037,VALID,0,VALID,96.6038,VALID,-0.101885,VALID,19.3727,VALID,106,VALID,0,
2001-12-03, 00:05:00,VALID,918.02,VALID,0,VALID,96.7271,VALID,-0.0169808,VALID,19.3295,VALID,106,VALID,0,
2001-12-03, 00:06:00,VALID,917.998,VALID,0,VALID,96.9052,VALID,0.0169808,VALID,19.3166,VALID,106,VALID,0,
2001-12-03, 00:07:00,VALID,917.972,VALID,0,VALID,96.8836,VALID,0,VALID,19.291,VALID,106,VALID,0,
2001-12-03, 00:08:00,VALID,917.933,VALID,0,VALID,96.8607,VALID,0,VALID,19.2452,VALID,106,VALID,0,
2001-12-03, 00:09:00,VALID,917.915,VALID,0,VALID,96.8683,VALID,0,VALID,19.2134,VALID,106,VALID,0,
2001-12-03, 00:10:00,VALID,917.916,VALID,0,VALID,96.8251,VALID,-0.0169808,VALID,19.1881,VALID,106,VALID,0,
2001-12-03, 00:11:00,VALID,917.901,VALID,0,VALID,96.7284,VALID,0,VALID,19.1394,VALID,106,VALID,0,
2001-12-03, 00:12:00,VALID,917.864,VALID,0,VALID,96.9713,VALID,0,VALID,19.1103,VALID,6,VALID,0.192708,
2001-12-03, 00:13:00,VALID,917.864,VALID,0,VALID,97.0984,VALID,0,VALID,19.1168,VALID,314,VALID,0.271835,
2001-12-03, 00:14:00,VALID,917.855,VALID,0,VALID,97.1569,VALID,0.0169808,VALID,19.12,VALID,314,VALID,0.00703125,
2001-12-03, 00:15:00,VALID,917.831,VALID,0,VALID,96.8988,VALID,0,VALID,19.081,VALID,314,VALID,0,
2001-12-03, 00:16:00,VALID,917.827,VALID,0,VALID,96.3736,VALID,-0.0169808,VALID,18.9613,VALID,314,VALID,0.0488281,
2001-12-03, 00:17:00,VALID,917.822,VALID,0,VALID,97.1595,VALID,0,VALID,19.0072,VALID,314,VALID,0.182091,
2001-12-03, 00:18:00,VALID,917.811,VALID,0,VALID,97.5664,VALID,0,VALID,19.0882,VALID,315,VALID,0.0246711,
2001-12-03, 00:19:00,VALID,917.809,VALID,0,VALID,97.7355,VALID,0.0339617,VALID,19.1198,VALID,318,VALID,0.269431,
2001-12-03, 00:20:00,VALID,917.798,VALID,0,VALID,97.7851,VALID,0,VALID,19.1232,VALID,322,VALID,0.13713,
2001-12-03, 00:21:00,VALID,917.799,VALID,0,VALID,98.0636,VALID,-0.0169808,VALID,19.1784,VALID,352,VALID,0.467748,
2001-12-03, 00:22:00,VALID,917.803,VALID,0,VALID,98.262,VALID,-0.0169808,VALID,19.2494,VALID,357,VALID,0.326562,
2001-12-03, 00:23:00,VALID,917.8,VALID,0,VALID,98.3497,VALID,0,VALID,19.285,VALID,2,VALID,0.119932,
2001-12-03, 00:24:00,VALID,917.814,VALID,0,VALID,98.4069,VALID,-0.0509425,VALID,19.3138,VALID,2,VALID,0.0078125,
2001-12-03, 00:25:00,VALID,917.825,VALID,0,VALID,98.454,VALID,0.0169808,VALID,19.3496,VALID,2,VALID,0,
2001-12-03, 00:26:00,VALID,917.842,VALID,0,VALID,98.4845,VALID,0,VALID,19.3687,VALID,2,VALID,0,
2001-12-03, 00:27:00,VALID,917.85,VALID,0,VALID,98.4476,VALID,-0.0169808,VALID,19.3662,VALID,5,VALID,0,
2001-12-03, 00:28:00,VALID,917.854,VALID,0,VALID,98.4731,VALID,0,VALID,19.3556,VALID,5,VALID,0,
2001-12-03, 00:29:00,VALID,917.867,VALID,0,VALID,98.4972,VALID,0,VALID,19.3687,VALID,5,VALID,0,
2001-12-03, 00:30:00,VALID,917.865,VALID,0,VALID,98.5303,VALID,0,VALID,19.3916,VALID,5,VALID,0,
2001-12-03, 00:31:00,VALID,917.872,VALID,0,VALID,98.5684,VALID,-0.0169808,VALID,19.3976,VALID,5,VALID,0.0506757,
2001-12-03, 00:32:00,VALID,917.873,VALID,0,VALID,98.5672,VALID,0,VALID,19.4207,VALID,5,VALID,0.0208984,
2001-12-03, 00:33:00,VALID,917.87,VALID,0,VALID,98.5684,VALID,0,VALID,19.4306,VALID,6,VALID,0.290264,
2001-12-03, 00:34:00,VALID,917.842,VALID,0,VALID,98.5837,VALID,0,VALID,19.4236,VALID,17,VALID,0.695518,
2001-12-03, 00:35:00,VALID,917.817,VALID,0,VALID,98.6803,VALID,0,VALID,19.4619,VALID,17,VALID,1.01142,
2001-12-03, 00:36:00,VALID,917.774,VALID,0,VALID,98.7274,VALID,0,VALID,19.5111,VALID,15,VALID,1.03701,
2001-12-03, 00:37:00,VALID,917.758,VALID,0,VALID,98.7375,VALID,-0.0169808,VALID,19.5335,VALID,18,VALID,1.04227,
2001-12-03, 00:38:00,VALID,917.719,VALID,0,VALID,98.7452,VALID,0,VALID,19.5365,VALID,27,VALID,0.703906,
2001-12-03, 00:39:00,VALID,917.702,VALID,0,VALID,98.7541,VALID,-0.0169808,VALID,19.5697,VALID,19,VALID,0.48353,
2001-12-03, 00:40:00,VALID,917.685,VALID,0,VALID,98.7579,VALID,-0.0339617,VALID,19.5623,VALID,12,VALID,0.558594,
2001-12-03, 00:41:00,VALID,917.678,VALID,0,VALID,98.7757,VALID,0,VALID,19.5785,VALID,15,VALID,0.446514,
2001-12-03, 00:42:00,VALID,917.695,VALID,0,VALID,98.7821,VALID,0,VALID,19.5981,VALID,28,VALID,0.508018,
2001-12-03, 00:43:00,VALID,917.707,VALID,0,VALID,98.7732,VALID,0,VALID,19.5916,VALID,39,VALID,0.610377,
2001-12-03, 00:44:00,VALID,917.735,VALID,0,VALID,98.721,VALID,-0.0169808,VALID,19.5757,VALID,44,VALID,0.708676,
2001-12-03, 00:45:00,VALID,917.736,VALID,0,VALID,98.6727,VALID,0,VALID,19.5427,VALID,56,VALID,1.01522,
2001-12-03, 00:46:00,VALID,917.758,VALID,0,VALID,98.6562,VALID,0,VALID,19.5302,VALID,56,VALID,0.769531,
2001-12-03, 00:47:00,VALID,917.76,VALID,0,VALID,98.693,VALID,0,VALID,19.5074,VALID,21,VALID,0.768792,
2001-12-03, 00:48:00,VALID,917.751,VALID,0,VALID,98.6689,VALID,0,VALID,19.495,VALID,29,VALID,0.951563,
2001-12-03, 00:49:00,VALID,917.739,VALID,0,VALID,98.6841,VALID,-0.0339617,VALID,19.4786,VALID,23,VALID,0.682292,
2001-12-03, 00:50:00,VALID,917.733,VALID,0,VALID,98.6867,VALID,0,VALID,19.4723,VALID,44,VALID,0.72903,
2001-12-03, 00:51:00,VALID,917.703,VALID,0,VALID,98.6574,VALID,-0.0169808,VALID,19.4527,VALID,49,VALID,0.836338,
2001-12-03, 00:52:00,VALID,917.693,VALID,0,VALID,98.6854,VALID,0,VALID,19.4197,VALID,40,VALID,0.983141,
2001-12-03, 00:53:00,VALID,917.67,VALID,0,VALID,98.6918,VALID,0,VALID,19.4301,VALID,43,VALID,0.804888,
2001-12-03, 00:54:00,VALID,917.66,VALID,0,VALID,98.7108,VALID,0,VALID,19.4202,VALID,53,VALID,0.686133,
2001-12-03, 00:55:00,VALID,917.628,VALID,0,VALID,98.7299,VALID,0,VALID,19.4164,VALID,54,VALID,0.660473,
2001-12-03, 00:56:00,VALID,917.616,VALID,0,VALID,98.7477,VALID,-0.0339617,VALID,19.4303,VALID,31,VALID,0.963086,
2001-12-03, 00:57:00,VALID,917.61,VALID,0,VALID,98.7604,VALID,-0.0339617,VALID,19.4137,VALID,38,VALID,0.70633,
2001-12-03, 00:58:00,VALID,917.603,VALID,0,VALID,98.7859,VALID,-0.0339617,VALID,19.4202,VALID,30,VALID,0.988898,
2001-12-03, 00:59:00,VALID,917.616,VALID,0,VALID,98.8049,VALID,0,VALID,19.4264,VALID,18,VALID,1.08694,
2001-12-03, 01:00:00,VALID,917.636,VALID,0,VALID,98.8139,VALID,-0.0169808,VALID,19.4403,VALID,1,VALID,0.93236,
2001-12-03, 01:01:00,VALID,917.661,VALID,0,VALID,98.7922,VALID,0,VALID,19.4038,VALID,9,VALID,0.798277,
2001-12-03, 01:02:00,VALID,917.697,VALID,0,VALID,98.791,VALID,-0.0169808,VALID,19.4077,VALID,9,VALID,0.613281,
2001-12-03, 01:03:00,VALID,917.71,VALID,0,VALID,98.8418,VALID,0,VALID,19.41,VALID,349,VALID,0.418285,
2001-12-03, 01:04:00,VALID,917.726,VALID,0,VALID,98.8673,VALID,0,VALID,19.4261,VALID,340,VALID,0.0589844,
2001-12-03, 01:05:00,VALID,917.735,VALID,0,VALID,98.8571,VALID,0,VALID,19.4261,VALID,335,VALID,0,
2001-12-03, 01:06:00,VALID,917.74,VALID,0,VALID,98.8851,VALID,-0.0169808,VALID,19.4559,VALID,335,VALID,0,
2001-12-03, 01:07:00,VALID,917.754,VALID,0,VALID,98.9168,VALID,0,VALID,19.4751,VALID,335,VALID,0,
2001-12-03, 01:08:00,VALID,917.764,VALID,0,VALID,98.9372,VALID,-0.0169808,VALID,19.5076,VALID,1,VALID,0.29153,
2001-12-03, 01:09:00,VALID,917.783,VALID,0,VALID,98.9448,VALID,0,VALID,19.53,VALID,15,VALID,0.413662,
2001-12-03, 01:10:00,VALID,917.809,VALID,0,VALID,98.9499,VALID,0,VALID,19.5394,VALID,20,VALID,0.813867,
2001-12-03, 01:11:00,VALID,917.821,VALID,0,VALID,98.9334,VALID,0,VALID,19.5494,VALID,18,VALID,0.778927,
2001-12-03, 01:12:00,VALID,917.825,VALID,0,VALID,98.9245,VALID,0.0169808,VALID,19.5427,VALID,24,VALID,0.694727,
2001-12-03, 01:13:00,VALID,917.789,VALID,0,VALID,98.9092,VALID,0,VALID,19.5357,VALID,19,VALID,0.778846,
2001-12-03, 01:14:00,VALID,917.76,VALID,0,VALID,98.8774,VALID,0,VALID,19.5268,VALID,16,VALID,0.913857,
2001-12-03, 01:15:00,VALID,917.713,VALID,0,VALID,98.8876,VALID,0,VALID,19.5362,VALID,4,VALID,0.276042,
2001-12-03, 01:16:00,VALID,917.647,VALID,0,VALID,98.894,VALID,0,VALID,19.5399,VALID,9,VALID,0.192229,
2001-12-03, 01:17:00,VALID,917.615,VALID,0,VALID,98.8889,VALID,0.0169808,VALID,19.5457,VALID,9,VALID,0,
2001-12-03, 01:18:00,VALID,917.583,VALID,0,VALID,98.894,VALID,0.0169808,VALID,19.5551,VALID,9,VALID,0,
2001-12-03, 01:19:00,VALID,917.585,VALID,0,VALID,98.8952,VALID,0.0169808,VALID,19.5621,VALID,298,VALID,0.412162,
2001-12-03, 01:20:00,VALID,917.605,VALID,0,VALID,98.8812,VALID,-0.118866,VALID,19.5471,VALID,191,VALID,0.628125,
2001-12-03, 01:21:00,VALID,917.633,VALID,0,VALID,98.8723,VALID,-0.101885,VALID,19.5509,VALID,199,VALID,0.812099,
2001-12-03, 01:22:00,VALID,917.677,VALID,0,VALID,98.8456,VALID,-0.118866,VALID,19.5218,VALID,235,VALID,0.480674,
2001-12-03, 01:23:00,VALID,917.715,VALID,0,VALID,98.8494,VALID,-0.0849042,VALID,19.5215,VALID,234,VALID,0.124399,
2001-12-03, 01:24:00,VALID,917.711,VALID,0,VALID,98.8406,VALID,-0.118866,VALID,19.5056,VALID,238,VALID,0.499178,
2001-12-03, 01:25:00,VALID,917.707,VALID,0,VALID,98.8126,VALID,-0.101885,VALID,19.4763,VALID,238,VALID,0.740986,
2001-12-03, 01:26:00,VALID,917.676,VALID,0,VALID,98.8088,VALID,-0.101885,VALID,19.451,VALID,242,VALID,0.843555,
2001-12-03, 01:27:00,VALID,917.631,VALID,0,VALID,98.8113,VALID,-0.101885,VALID,19.451,VALID,233,VALID,0.588894,
2001-12-03, 01:28:00,VALID,917.587,VALID,0,VALID,98.8088,VALID,-0.101885,VALID,19.4249,VALID,235,VALID,0.74375,
2001-12-03, 01:29:00,VALID,917.548,VALID,0,VALID,98.8151,VALID,-0.101885,VALID,19.402,VALID,241,VALID,0.444912,
2001-12-03, 01:30:00,VALID,917.518,VALID,0,VALID,98.8088,VALID,-0.101885,VALID,19.3891,VALID,235,VALID,0.624589,
2001-12-03, 01:31:00,VALID,917.523,VALID,0,VALID,98.824,VALID,-0.118866,VALID,19.3764,VALID,218,VALID,0.527644,
2001-12-03, 01:32:00,VALID,917.553,VALID,0,VALID,98.8406,VALID,-0.135847,VALID,19.3632,VALID,199,VALID,0.589433,
2001-12-03, 01:33:00,VALID,917.585,VALID,0,VALID,98.8622,VALID,-0.101885,VALID,19.3766,VALID,225,VALID,0.253806,
2001-12-03, 01:34:00,VALID,917.632,VALID,0,VALID,98.8698,VALID,-0.101885,VALID,19.3831,VALID,226,VALID,0.241797,
2001-12-03, 01:35:00,VALID,917.672,VALID,0,VALID,98.8889,VALID,-0.0169808,VALID,19.3816,VALID,243,VALID,0.36402,
2001-12-03, 01:36:00,VALID,917.68,VALID,0,VALID,98.8825,VALID,-0.0169808,VALID,19.3814,VALID,245,VALID,0.204297,
2001-12-03, 01:37:00,VALID,917.669,VALID,0,VALID,98.8698,VALID,0,VALID,19.368,VALID,211,VALID,0.291466,
2001-12-03, 01:38:00,VALID,917.644,VALID,0,VALID,98.866,VALID,-0.0169808,VALID,19.3685,VALID,228,VALID,0.377673,
2001-12-03, 01:39:00,VALID,917.606,VALID,0,VALID,98.8736,VALID,-0.0339617,VALID,19.365,VALID,211,VALID,0.10597,
2001-12-03, 01:40:00,VALID,917.561,VALID,0,VALID,98.8889,VALID,-0.0169808,VALID,19.3715,VALID,206,VALID,0.201891,
2001-12-03, 01:41:00,VALID,917.517,VALID,0,VALID,98.8914,VALID,0,VALID,19.3745,VALID,185,VALID,0.244992,
2001-12-03, 01:42:00,VALID,917.475,VALID,0,VALID,98.9003,VALID,-0.0509425,VALID,19.3908,VALID,186,VALID,0,
2001-12-03, 01:43:00,VALID,917.454,VALID,0,VALID,98.8825,VALID,-0.0169808,VALID,19.4008,VALID,147,VALID,0.134924,
2001-12-03, 01:44:00,VALID,917.44,VALID,0,VALID,98.8838,VALID,-0.0169808,VALID,19.3906,VALID,160,VALID,0.00625,
2001-12-03, 01:45:00,VALID,917.441,VALID,0,VALID,98.8851,VALID,-0.0339617,VALID,19.3938,VALID,163,VALID,0.09375,
2001-12-03, 01:46:00,VALID,917.44,VALID,0,VALID,98.8787,VALID,-0.0339617,VALID,19.3841,VALID,177,VALID,0.500411,
2001-12-03, 01:47:00,VALID,917.437,VALID,0,VALID,98.8596,VALID,0.0169808,VALID,19.398,VALID,168,VALID,0.567909,
2001-12-03, 01:48:00,VALID,917.419,VALID,0,VALID,98.8736,VALID,-0.0169808,VALID,19.3943,VALID,175,VALID,0.452508,
2001-12-03, 01:49:00,VALID,917.408,VALID,0,VALID,98.8685,VALID,-0.0339617,VALID,19.3946,VALID,171,VALID,0.701122,
2001-12-03, 01:50:00,VALID,917.373,VALID,0,VALID,98.8634,VALID,0,VALID,19.3941,VALID,170,VALID,0.716992,
2001-12-03, 01:51:00,VALID,917.359,VALID,0,VALID,98.8774,VALID,-0.0169808,VALID,19.401,VALID,190,VALID,0.327492,
2001-12-03, 01:52:00,VALID,917.352,VALID,0,VALID,98.8812,VALID,-0.0169808,VALID,19.3971,VALID,181,VALID,0.354492,
2001-12-03, 01:53:00,VALID,917.353,VALID,0,VALID,98.8774,VALID,0,VALID,19.4038,VALID,168,VALID,0.291867,
2001-12-03, 01:54:00,VALID,917.367,VALID,0,VALID,98.8825,VALID,-0.0169808,VALID,19.4035,VALID,170,VALID,0.33676,
2001-12-03, 01:55:00,VALID,917.379,VALID,0,VALID,98.8723,VALID,-0.0679233,VALID,19.4239,VALID,134,VALID,0.492788,
2001-12-03, 01:56:00,VALID,917.391,VALID,0,VALID,98.8584,VALID,-0.0169808,VALID,19.4172,VALID,142,VALID,0.774671,
2001-12-03, 01:57:00,VALID,917.405,VALID,0,VALID,98.8507,VALID,-0.0169808,VALID,19.4105,VALID,136,VALID,0.537059,
2001-12-03, 01:58:00,VALID,917.4,VALID,0,VALID,98.8596,VALID,0,VALID,19.3938,VALID,127,VALID,0.472266,
2001-12-03, 01:59:00,VALID,917.409,VALID,0,VALID,98.8431,VALID,-0.0339617,VALID,19.3911,VALID,130,VALID,0.626689,
2001-12-03, 02:00:00,VALID,917.393,VALID,0,VALID,98.8533,VALID,-0.0339617,VALID,19.3881,VALID,117,VALID,0.480664,
2001-12-03, 02:01:00,VALID,917.399,VALID,0,VALID,98.8431,VALID,-0.0339617,VALID,19.3682,VALID,120,VALID,0.908053,
2001-12-03, 02:02:00,VALID,917.397,VALID,0,VALID,98.8584,VALID,-0.0339617,VALID,19.369,VALID,137,VALID,1.05407,
2001-12-03, 02:03:00,VALID,917.396,VALID,0,VALID,98.8736,VALID,-0.0679233,VALID,19.3754,VALID,148,VALID,1.19291,
2001-12-03, 02:04:00,VALID,917.368,VALID,0,VALID,98.8863,VALID,-0.0169808,VALID,19.3752,VALID,141,VALID,0.695518,
2001-12-03, 02:05:00,VALID,917.347,VALID,0,VALID,98.9105,VALID,0,VALID,19.3787,VALID,134,VALID,1.0643,
2001-12-03, 02:06:00,VALID,917.321,VALID,0,VALID,98.9118,VALID,-0.0169808,VALID,19.3752,VALID,124,VALID,1.20625,
2001-12-03, 02:07:00,VALID,917.301,VALID,0,VALID,98.9041,VALID,-0.0169808,VALID,19.362,VALID,118,VALID,1.2481,
2001-12-03, 02:08:00,VALID,917.287,VALID,0,VALID,98.8965,VALID,-0.0339617,VALID,19.3491,VALID,108,VALID,1.17988,
2001-12-03, 02:09:00,VALID,917.265,VALID,0,VALID,98.9219,VALID,0,VALID,19.3459,VALID,114,VALID,0.38101,
2001-12-03, 02:10:00,VALID,917.258,VALID,0,VALID,98.9461,VALID,0,VALID,19.3354,VALID,134,VALID,0.370066,
2001-12-03, 02:11:00,VALID,917.253,VALID,0,VALID,98.941,VALID,0,VALID,19.3392,VALID,143,VALID,0.915865,
2001-12-03, 02:12:00,VALID,917.258,VALID,0,VALID,98.9359,VALID,-0.0339617,VALID,19.3198,VALID,135,VALID,1.04914,
2001-12-03, 02:13:00,VALID,917.249,VALID,0,VALID,98.9219,VALID,-0.0169808,VALID,19.3205,VALID,120,VALID,1.37079,
2001-12-03, 02:14:00,VALID,917.235,VALID,0,VALID,98.9168,VALID,-0.0169808,VALID,19.2912,VALID,113,VALID,1.06465,
2001-12-03, 02:15:00,VALID,917.226,VALID,0,VALID,98.9677,VALID,-0.0169808,VALID,19.281,VALID,138,VALID,0.815245,
2001-12-03, 02:16:00,VALID,917.209,VALID,0,VALID,98.9842,VALID,-0.0169808,VALID,19.2847,VALID,126,VALID,1.07598,
2001-12-03, 02:17:00,VALID,917.18,VALID,0,VALID,99.0071,VALID,0,VALID,19.2875,VALID,97,VALID,0.633614,
2001-12-03, 02:18:01,VALID,917.169,VALID,0,VALID,99.0008,VALID,0,VALID,19.2845,VALID,128,VALID,1.27817,
2001-12-03, 02:19:00,VALID,917.162,VALID,0,VALID,98.9944,VALID,-0.0169808,VALID,19.2746,VALID,98,VALID,1.24359,
2001-12-03, 02:20:00,VALID,917.157,VALID,0,VALID,98.9957,VALID,0,VALID,19.2679,VALID,123,VALID,1.46299,
2001-12-03, 02:21:00,VALID,917.166,VALID,0,VALID,99.0059,VALID,0,VALID,19.2813,VALID,130,VALID,1.27744,
2001-12-03, 02:22:00,VALID,917.168,VALID,0,VALID,99.0249,VALID,-0.0169808,VALID,19.278,VALID,131,VALID,0.817578,
2001-12-03, 02:23:00,VALID,917.178,VALID,0,VALID,99.0249,VALID,-0.0339617,VALID,19.2912,VALID,131,VALID,1.40498,
2001-12-03, 02:24:00,VALID,917.176,VALID,0,VALID,99.0275,VALID,0,VALID,19.2775,VALID,130,VALID,1.52246,
2001-12-03, 02:25:00,VALID,917.174,VALID,0,VALID,99.0224,VALID,-0.0509425,VALID,19.2847,VALID,126,VALID,1.1891,
2001-12-03, 02:26:01,VALID,917.176,VALID,0,VALID,99.0326,VALID,0,VALID,19.2681,VALID,143,VALID,0.883018,
2001-12-03, 02:27:00,VALID,917.172,VALID,0,VALID,99.0287,VALID,-0.0169808,VALID,19.2785,VALID,117,VALID,1.70473,
2001-12-03, 02:28:00,VALID,917.162,VALID,0,VALID,99.0351,VALID,-0.0339617,VALID,19.2624,VALID,121,VALID,1.28207,
2001-12-03, 02:29:00,VALID,917.154,VALID,0,VALID,99.0377,VALID,-0.0509425,VALID,19.2589,VALID,116,VALID,1.04868,
2001-12-03, 02:30:01,VALID,917.156,VALID,0,VALID,99.0529,VALID,0,VALID,19.2656,VALID,83,VALID,0.808008,
2001-12-03, 02:31:00,VALID,917.151,VALID,0,VALID,99.0542,VALID,-0.0169808,VALID,19.2654,VALID,76,VALID,1.04054,
2001-12-03, 02:32:00,VALID,917.162,VALID,0,VALID,99.0287,VALID,-0.0169808,VALID,19.2494,VALID,99,VALID,0.879102,
2001-12-03, 02:33:00,VALID,917.174,VALID,0,VALID,99.0351,VALID,-0.0339617,VALID,19.2365,VALID,119,VALID,0.898638,
2001-12-03, 02:34:01,VALID,917.196,VALID,0,VALID,99.058,VALID,-0.0169808,VALID,19.2264,VALID,125,VALID,0.61801,
2001-12-03, 02:35:00,VALID,917.2,VALID,0,VALID,99.0745,VALID,-0.0169808,VALID,19.2427,VALID,114,VALID,0.91867,
2001-12-03, 02:36:00,VALID,917.203,VALID,0,VALID,99.0529,VALID,-0.0169808,VALID,19.2264,VALID,116,VALID,1.33532,
2001-12-03, 02:37:00,VALID,917.203,VALID,0,VALID,99.0656,VALID,0,VALID,19.2134,VALID,106,VALID,0.801172,
2001-12-03, 02:38:00,VALID,917.201,VALID,0,VALID,99.0682,VALID,0,VALID,19.21,VALID,107,VALID,0.884375,
2001-12-03, 02:39:00,VALID,917.194,VALID,0,VALID,99.058,VALID,-0.0169808,VALID,19.2072,VALID,96,VALID,0.929054,
2001-12-03, 02:40:00,VALID,917.19,VALID,0,VALID,99.0529,VALID,0,VALID,19.207,VALID,105,VALID,0.761328,
2001-12-03, 02:41:00,VALID,917.209,VALID,0,VALID,99.0516,VALID,-0.0679233,VALID,19.1973,VALID,111,VALID,0.959936,
2001-12-03, 02:42:01,VALID,917.198,VALID,0,VALID,99.0605,VALID,-0.0509425,VALID,19.1906,VALID,103,VALID,0.71361,
2001-12-03, 02:43:00,VALID,917.228,VALID,0,VALID,99.0466,VALID,0,VALID,19.1871,VALID,114,VALID,1.10116,
2001-12-03, 02:44:00,VALID,917.232,VALID,0,VALID,99.0529,VALID,0,VALID,19.1779,VALID,138,VALID,1.02118,
2001-12-03, 02:45:00,VALID,917.233,VALID,0,VALID,99.0389,VALID,-0.0169808,VALID,19.1811,VALID,112,VALID,1.05068,
2001-12-03, 02:46:01,VALID,917.247,VALID,0,VALID,99.0593,VALID,-0.0169808,VALID,19.1841,VALID,111,VALID,0.655078,
2001-12-03, 02:47:00,VALID,917.251,VALID,0,VALID,99.0605,VALID,-0.0169808,VALID,19.1742,VALID,120,VALID,0.558277,
2001-12-03, 02:48:00,VALID,917.246,VALID,0,VALID,99.0377,VALID,0,VALID,19.1779,VALID,119,VALID,1.03574,
2001-12-03, 02:49:00,VALID,917.24,VALID,0,VALID,99.0033,VALID,-0.0339617,VALID,19.1521,VALID,106,VALID,0.936699,
2001-12-03, 02:50:01,VALID,917.229,VALID,0,VALID,98.983,VALID,-0.0169808,VALID,19.1424,VALID,110,VALID,1.33018,
2001-12-03, 02:51:00,VALID,917.206,VALID,0,VALID,98.9677,VALID,-0.0339617,VALID,19.12,VALID,108,VALID,1.29006,
2001-12-03, 02:52:00,VALID,917.197,VALID,0,VALID,98.9677,VALID,0,VALID,19.0934,VALID,104,VALID,0.815173,
2001-12-03, 02:53:00,VALID,917.176,VALID,0,VALID,98.9639,VALID,-0.0339617,VALID,19.0905,VALID,63,VALID,0.163662,
2001-12-03, 02:54:01,VALID,917.173,VALID,0,VALID,98.969,VALID,-0.0169808,VALID,19.0909,VALID,79,VALID,0.545508,
2001-12-03, 02:55:00,VALID,917.171,VALID,0,VALID,98.941,VALID,-0.0339617,VALID,19.0842,VALID,82,VALID,0.674831,
2001-12-03, 02:56:00,VALID,917.16,VALID,0,VALID,98.9397,VALID,0,VALID,19.0875,VALID,34,VALID,0.268359,
2001-12-03, 02:57:00,VALID,917.16,VALID,0,VALID,98.9258,VALID,-0.0169808,VALID,19.1011,VALID,100,VALID,0.578926,
2001-12-03, 02:58:01,VALID,917.159,VALID,0,VALID,98.9016,VALID,-0.0169808,VALID,19.084,VALID,115,VALID,0.566406,
2001-12-03, 02:59:00,VALID,917.149,VALID,0,VALID,98.88,VALID,-0.0169808,VALID,19.0944,VALID,111,VALID,0.886619,
2001-12-03, 03:00:00,VALID,917.128,VALID,0,VALID,98.8647,VALID,-0.0509425,VALID,19.0882,VALID,123,VALID,1.21649,
2001-12-03, 03:01:00,VALID,917.104,VALID,0,VALID,98.8545,VALID,0,VALID,19.0946,VALID,125,VALID,0.963942,
2001-12-03, 03:02:00,VALID,917.09,VALID,0,VALID,98.8355,VALID,-0.0169808,VALID,19.0845,VALID,133,VALID,0.793164,
2001-12-03, 03:03:00,VALID,917.08,VALID,0,VALID,98.8202,VALID,-0.0679233,VALID,19.0711,VALID,151,VALID,0.98902,
2001-12-03, 03:04:00,VALID,917.073,VALID,0,VALID,98.8024,VALID,0,VALID,19.0785,VALID,147,VALID,1.15527,
2001-12-03, 03:05:00,VALID,917.076,VALID,0,VALID,98.7668,VALID,-0.0169808,VALID,19.0716,VALID,144,VALID,1.54287,
2001-12-03, 03:06:01,VALID,917.074,VALID,0,VALID,98.7299,VALID,-0.0169808,VALID,19.0649,VALID,156,VALID,1.1949,
2001-12-03, 03:07:00,VALID,917.064,VALID,0,VALID,98.6867,VALID,0,VALID,19.0554,VALID,145,VALID,1.34796,
2001-12-03, 03:08:00,VALID,917.053,VALID,0,VALID,98.6066,VALID,-0.0169808,VALID,19.0492,VALID,126,VALID,1.14371,
2001-12-03, 03:09:00,VALID,917.048,VALID,0,VALID,98.4998,VALID,-0.0339617,VALID,19.0102,VALID,150,VALID,0.885417,
2001-12-03, 03:10:01,VALID,917.038,VALID,0,VALID,98.4375,VALID,-0.0339617,VALID,19.004,VALID,143,VALID,0.789453,
2001-12-03, 03:11:00,VALID,917.057,VALID,0,VALID,98.3408,VALID,-0.0169808,VALID,18.9714,VALID,147,VALID,1.68454,
2001-12-03, 03:12:00,VALID,917.082,VALID,0,VALID,98.2836,VALID,-0.0169808,VALID,18.9684,VALID,142,VALID,1.31445,
2001-12-03, 03:13:00,VALID,917.098,VALID,0,VALID,98.2569,VALID,-0.0339617,VALID,18.9779,VALID,147,VALID,1.6881,
2001-12-03, 03:14:01,VALID,917.105,VALID,0,VALID,98.2416,VALID,-0.0509425,VALID,18.9846,VALID,158,VALID,1.12644,
2001-12-03, 03:15:00,VALID,917.118,VALID,0,VALID,98.2467,VALID,-0.0169808,VALID,18.9943,VALID,152,VALID,1.14083,
2001-12-03, 03:16:00,VALID,917.133,VALID,0,VALID,98.248,VALID,-0.0169808,VALID,18.9973,VALID,144,VALID,1.45436,
2001-12-03, 03:17:00,VALID,917.127,VALID,0,VALID,98.2632,VALID,0,VALID,18.994,VALID,151,VALID,1.31591,
2001-12-03, 03:18:01,VALID,917.109,VALID,0,VALID,98.2543,VALID,-0.0169808,VALID,18.9943,VALID,159,VALID,1.46328,
2001-12-03, 03:19:00,VALID,917.088,VALID,0,VALID,98.2009,VALID,-0.0339617,VALID,18.9881,VALID,142,VALID,0.974873,
2001-12-03, 03:20:00,VALID,917.085,VALID,0,VALID,98.1386,VALID,0,VALID,18.9747,VALID,148,VALID,1.15723,
2001-12-03, 03:21:00,VALID,917.071,VALID,0,VALID,98.0865,VALID,-0.0169808,VALID,18.9811,VALID,151,VALID,1.47656,
2001-12-03, 03:22:01,VALID,917.067,VALID,0,VALID,98.0356,VALID,-0.0339617,VALID,18.9776,VALID,146,VALID,1.24959,
2001-12-03, 03:23:00,VALID,917.071,VALID,0,VALID,97.9886,VALID,0,VALID,18.991,VALID,146,VALID,1.1891,
2001-12-03, 03:24:00,VALID,917.078,VALID,0,VALID,97.9314,VALID,0,VALID,19.0037,VALID,155,VALID,1.16468,
2001-12-03, 03:25:00,VALID,917.096,VALID,0,VALID,97.8996,VALID,-0.0169808,VALID,19.0137,VALID,157,VALID,1.27224,
2001-12-03, 03:26:00,VALID,917.124,VALID,0,VALID,97.8627,VALID,0,VALID,19.0169,VALID,145,VALID,0.579883,
2001-12-03, 03:27:00,VALID,917.154,VALID,0,VALID,97.7966,VALID,-0.0169808,VALID,19.0139,VALID,158,VALID,0.926943,
2001-12-03, 03:28:00,VALID,917.179,VALID,0,VALID,97.7749,VALID,0,VALID,19.0231,VALID,153,VALID,1.09727,
2001-12-03, 03:29:00,VALID,917.191,VALID,0,VALID,97.7546,VALID,0,VALID,19.0298,VALID,139,VALID,0.816106,
2001-12-03, 03:30:01,VALID,917.187,VALID,0,VALID,97.7076,VALID,-0.0169808,VALID,19.0494,VALID,160,VALID,0.602385,
2001-12-03, 03:31:00,VALID,917.189,VALID,0,VALID,97.6936,VALID,-0.0509425,VALID,19.0363,VALID,77,VALID,0.155048,
2001-12-03, 03:32:00,VALID,917.162,VALID,0,VALID,97.691,VALID,-0.0169808,VALID,19.0623,VALID,16,VALID,0.217722,
2001-12-03, 03:33:00,VALID,917.141,VALID,0,VALID,97.6465,VALID,-0.0339617,VALID,19.0626,VALID,16,VALID,0.104768,
2001-12-03, 03:34:01,VALID,917.131,VALID,0,VALID,97.6071,VALID,0,VALID,19.0589,VALID,14,VALID,0.481836,
2001-12-03, 03:35:00,VALID,917.12,VALID,0,VALID,97.4558,VALID,0,VALID,19.033,VALID,26,VALID,0.604307,
2001-12-03, 03:36:00,VALID,917.116,VALID,0,VALID,97.4024,VALID,0,VALID,19.0005,VALID,18,VALID,0.210742,